Location: Burtsch�tz
(51.0528°N, 12.1764°E)
Time: 14:41:42
(UTC+00:00)

FengYun 1-2 T - Pass Details

Date: 29 October 2020
Orbit: 846 x 882 km, 98.7° (Epoch: 28 November)

Event Time Altitude Azimuth Distance (km) Brightness Sun altitude
Rises 16:09:55 0° 146° (SE) 3,471 7.2 -3.8°
Reaches altitude 10° 16:12:21 10° 142° (SE) 2,534 6.5 -4.1°
Maximum altitude 16:17:49 53° 67° (ENE) 1,076 4.4 -5.0°
Drops below altitude 10° 16:23:15 10° 352° (N) 2,532 6.6 -5.8°
Sets 16:25:41 0° 348° (NNW) 3,469 7.4 -6.1°
